Weather History for Cedar City, UT

Change the Weather History Date:

Monday, July 1, 2013

  Actual Average Record
Temperature  
Mean Temperature 78 °F 71 °F  
Max Temperature 97 °F 88 °F 99 °F (1990)
Min Temperature 58 °F 53 °F 40 °F (1997)
Degree Days  
Heating Degree Days 0 0  
Month to date heating degree days 0 0  
Since 1 June heating degree days 11 76  
Since 1 July heating degree days 0 0  
Cooling Degree Days 13 6  
Month to date cooling degree days 13 6  
Year to date cooling degree days 166 107  
Since 1 June cooling degree days 164 99  
Growing Degree Days 29 (Base 50)    
Moisture  
Dew Point 36 °F    
Average Humidity 29    
Maximum Humidity 47    
Minimum Humidity 11    
Precipitation  
Precipitation 0.00 in 0.01 in 0.13 in (1980)
Month to date precipitation 0.00 0.01  
Year to date precipitation 4.07 5.58  
Sea Level Pressure  
Sea Level Pressure 29.87 in    
Wind  
Wind Speed 6 mph (ESE)    
Max Wind Speed 16 mph    
Max Gust Speed 21 mph    
Visibility 10 miles    
Events Thunderstorm    
T = Trace of Precipitation, MM = Missing Value Source: NWS Daily Summary

Daily Weather History Graph

Daily Weather History Graph

Search for Another Location

Airport:

Trip Planner

Search our weather history database for the weather conditions in past years. The results will help you decide how hot, cold, wet, or windy it might be!

Date:

Astronomy

Jul. 01, 2013 Rise Set
Actual Time 6:14 AM MDT 8:57 PM MDT
Civil Twilight 5:43 AM MDT 9:29 PM MDT
Nautical Twilight 5:04 AM MDT 10:07 PM MDT
Astronomical Twilight 4:20 AM MDT 10:51 PM MDT
Moon 1:42 AM MDT (7/1) 3:20 PM MDT (7/1)
Length of Visible Light 15h 45m
Length of Day
14h 43m
Waning Crescent, 35% of the Moon is Illuminated
Jul 1
Waning Crescent
Jul 8
New
Jul 15
First Quarter
Jul 22
Full
Jul 29
Last Quarter

Hourly Weather History & Observations

Time (MDT) Temp. Dew Point Humidity Pressure Visibility Wind Dir Wind Speed Gust Speed Precip Events Conditions
12:53 AM 73.9 °F 35.1 °F 24% 29.83 in 10.0 mi SSW 5.8 mph - N/A   Clear
1:53 AM 75.0 °F 36.0 °F 24% 29.84 in 10.0 mi ESE 10.4 mph - N/A   Clear
2:53 AM 73.0 °F 35.1 °F 25% 29.84 in 10.0 mi SE 9.2 mph - N/A   Clear
3:53 AM 69.1 °F 36.0 °F 30% 29.84 in 10.0 mi Calm Calm - N/A   Clear
4:53 AM 64.0 °F 37.9 °F 38% 29.86 in 10.0 mi ENE 4.6 mph - N/A   Clear
5:53 AM 62.1 °F 37.0 °F 39% 29.89 in 10.0 mi NNE 5.8 mph - N/A   Clear
6:53 AM 61.0 °F 37.9 °F 42% 29.92 in 10.0 mi NNE 3.5 mph - N/A   Clear
7:53 AM 70.0 °F 39.0 °F 32% 29.91 in 10.0 mi Calm Calm - N/A   Clear
8:53 AM 75.9 °F 39.9 °F 27% 29.91 in 10.0 mi North 3.5 mph - N/A   Clear
9:53 AM 82.0 °F 39.0 °F 22% 29.90 in 10.0 mi Calm Calm - N/A   Clear
10:53 AM 87.1 °F 39.0 °F 18% 29.90 in 10.0 mi Calm Calm - N/A   Clear
11:43 AM 91.4 °F 35.6 °F 14% 30.18 in 10.0 mi West 5.8 mph - N/A Thunderstorm Clear
11:53 AM 95.0 °F 35.1 °F 12% 29.88 in 10.0 mi SW 12.7 mph 18.4 mph N/A   Clear
12:53 PM 93.9 °F 35.1 °F 13% 29.88 in 10.0 mi South 8.1 mph 17.3 mph N/A   Clear
1:53 PM 97.0 °F 35.1 °F 11% 29.86 in 10.0 mi SE 8.1 mph 16.1 mph N/A   Clear
2:53 PM 93.0 °F 33.1 °F 12% 29.86 in 10.0 mi East 12.7 mph 20.7 mph N/A   Clear
3:53 PM 91.9 °F 30.0 °F 11% 29.86 in 10.0 mi SE 9.2 mph - N/A   Clear
4:53 PM 93.0 °F 35.1 °F 13% 29.85 in 10.0 mi ESE 11.5 mph - N/A   Clear
5:53 PM 93.9 °F 32.0 °F 11% 29.83 in 10.0 mi ESE 9.2 mph - N/A   Clear
6:53 PM 91.9 °F 35.1 °F 13% 29.83 in 10.0 mi ESE 13.8 mph - N/A   Clear
7:53 PM 91.9 °F 35.1 °F 13% 29.81 in 10.0 mi ESE 6.9 mph - N/A   Clear
8:53 PM 84.9 °F 35.1 °F 17% 29.82 in 10.0 mi Calm Calm - N/A   Clear
9:53 PM 80.1 °F 37.0 °F 21% 29.84 in 10.0 mi Calm Calm - N/A   Clear
10:53 PM 79.0 °F 37.0 °F 22% 29.86 in 10.0 mi SSE 10.4 mph - N/A   Clear
11:53 PM 75.9 °F 33.1 °F 21% 29.84 in 10.0 mi SE 6.9 mph - N/A   Clear